This is the latest recevied weather packets stored in our database for station/object K4MGY-13. If no packets are shown the sender has not sent any weather packets the latest 10 day(s).
| Time | Temp. | Humidity | Pressure | Rain* | Wind** | Luminosity | Snow |
|---|---|---|---|---|---|---|---|
| 1777930718 | 27.22° C | 37% | 1009 hPa | 0 mm | - | - | - |
| 1777930417 | 26.67° C | 37% | 1009.1 hPa | 0 mm | - | - | - |
| 1777930117 | 27.22° C | 35% | 1008.8 hPa | 0 mm | - | - | - |
| 1777929787 | 27.22° C | 35% | 1008.9 hPa | 0 mm | - | - | - |
| 1777929457 | 27.22° C | 35% | 1009.1 hPa | 0 mm | - | - | - |
| 1777929127 | 27.78° C | 34% | 1009.1 hPa | 0 mm | - | - | - |
| 1777928827 | 27.22° C | 36% | 1008.8 hPa | 0 mm | - | - | - |
| 1777928547 | 27.22° C | 35% | 1009.1 hPa | 0 mm | - | - | - |
| 1777928527 | 26.67° C | 35% | 1008.8 hPa | 0 mm | - | - | - |
| 1777928227 | 27.22° C | 35% | 1009.1 hPa | 0 mm | - | - | - |
| 1777927927 | 27.78° C | 35% | 1009.1 hPa | 0 mm | - | - | - |
| 1777927628 | 27.78° C | 36% | 1009.1 hPa | 0 mm | - | - | - |
| 1777927299 | 27.78° C | 36% | 1009.4 hPa | 0 mm | - | - | - |
| 1777926999 | 27.78° C | 35% | 1009.1 hPa | 0 mm | - | - | - |
| 1777926398 | 27.22° C | 36% | 1009.1 hPa | 0 mm | - | - | - |
| 1777925797 | 27.22° C | 36% | 1009.5 hPa | 0 mm | - | - | - |
| 1777925467 | 27.22° C | 37% | 1009.4 hPa | 0 mm | - | - | - |
| 1777925136 | 27.22° C | 35% | 1009.5 hPa | 0 mm | - | - | - |
| 1777924836 | 27.22° C | 35% | 1009.5 hPa | 0 mm | - | - | - |
| 1777924507 | 27.22° C | 36% | 1009.8 hPa | 0 mm | - | - | - |
| 1777924176 | 27.22° C | 36% | 1009.8 hPa | 0 mm | - | - | - |
| 1777923877 | 27.22° C | 37% | 1009.8 hPa | 0 mm | - | - | - |
| 1777923547 | 27.22° C | 36% | 1010.1 hPa | 0 mm | - | - | - |
| 1777923216 | 27.22° C | 39% | 1010.1 hPa | 0 mm | - | - | - |
| 1777922917 | 27.22° C | 37% | 1010.2 hPa | 0 mm | - | - | - |
* Rain latest hour (hover to see other rain measurements)
** Current wind speed in m/s (hover to see current wind gust speed)